Location: Unspecified
(45.0173°N, 35.2345°E)
Time: 17:28:36
(UTC+02:00)

ISS - Pass Details

Date: 22 January 2026
Orbit: 414 x 429 km, 51.6° (Epoch: 9 February)

Event Time Altitude Azimuth Distance (km) Brightness Sun altitude
Rises 17:17:13 0° 286° (WNW) 2,360 1.1 -8.0°
Reaches altitude 10° 17:19:32 10° 300° (WNW) 1,500 -0.3 -8.4°
Maximum altitude 17:22:24 25° 358° (N) 884 -2.3 -8.9°
Enters shadow 17:24:55 12° 53° (NE) 1,381 -1.7 -9.3°
